{"data":{"norad_id":89493,"epoch":"2026-05-23T04:02:09.512160Z","epoch_age_seconds":243617,"freshness":"STALE","line1":"1 89493U          26143.16816565  .00001629  00000+0  80639-3 0  9993","line2":"2 89493  99.0131 219.2394 0078375 301.4169  57.9358 14.17160931486808","mean_motion":14.17160931,"eccentricity":0.0078375,"inclination_deg":99.0131,"raan_deg":219.2394,"arg_perigee_deg":301.4169,"mean_anomaly_deg":57.9358,"bstar":0.00080639,"rev_number":48680,"period_min":101.61160729882,"perigee_km":778.43759348922,"apogee_km":891.50305076355,"semimajor_km":7213.1073221264,"source":"CELESTRAK","updated_at":"2026-05-25T13:38:11.782367Z"}}